Zurück zum Katalog

STARLINK-37801

AktivKommunikationSSO
NORAD 69435·PAYLOAD·🇺🇸 United States

Gestartet Jun 7, 2026 von Vandenberg Space Force Base

Loading…

Nächste Überflüge (nächste 24 Stunden)

TLE

AktuellSource: CelesTrak SupGP

Epoche: Sep 15, 2026, 03:35 UTC

1 69435C 26126R   26258.14979167 -.00009519  00000+0 -29543-3 0  2580
2 69435  97.2849 119.4586 0001932  95.0676 292.5736 15.33449348    19

Verfolge STARLINK-37801 in Echtzeit mit AllMySat

Download on the App Store